Year,Month,Day,Hour,Minute,Value (Times are PST for temperature in C)
2008,12,16,00,00,-3.10
2008,12,16,00,01,-3.10
2008,12,16,00,02,-3.20
2008,12,16,00,03,-3.20
2008,12,16,00,04,-3.20
2008,12,16,00,05,-3.20
2008,12,16,00,06,-3.20
2008,12,16,00,07,-3.20
2008,12,16,00,08,-3.20
2008,12,16,00,09,-3.20
2008,12,16,00,10,-3.10
2008,12,16,00,11,-3.10
2008,12,16,00,12,-3.10
2008,12,16,00,13,-3.10
2008,12,16,00,14,-3.10
2008,12,16,00,15,-3.10
2008,12,16,00,16,-3.10
2008,12,16,00,17,-3.10
2008,12,16,00,18,-3.10
2008,12,16,00,19,-3.10
2008,12,16,00,20,-3.10
2008,12,16,00,21,-3.10
2008,12,16,00,22,-3.10
2008,12,16,00,23,-3.20
2008,12,16,00,24,-3.20
2008,12,16,00,25,-3.20
2008,12,16,00,26,-3.20
2008,12,16,00,27,-3.10
2008,12,16,00,28,-3.10
2008,12,16,00,29,-3.10
2008,12,16,00,30,-3.10
2008,12,16,00,31,-3.10
2008,12,16,00,32,-3.20
2008,12,16,00,33,-3.20
2008,12,16,00,34,-3.20
2008,12,16,00,35,-3.30
2008,12,16,00,36,-3.30
2008,12,16,00,37,-3.30
2008,12,16,00,38,-3.30
2008,12,16,00,39,-3.40
2008,12,16,00,40,-3.40
2008,12,16,00,41,-3.50
2008,12,16,00,42,-3.50
2008,12,16,00,43,-3.60
2008,12,16,00,44,-3.60
2008,12,16,00,45,-3.70
2008,12,16,00,46,-3.70
2008,12,16,00,47,-3.70
2008,12,16,00,48,-3.70
2008,12,16,00,49,-3.80
2008,12,16,00,50,-3.80
2008,12,16,00,51,-3.80
2008,12,16,00,52,-3.80
2008,12,16,00,53,-3.90
2008,12,16,00,54,-3.90
2008,12,16,00,55,-4.00
2008,12,16,00,56,-4.00
2008,12,16,00,57,-4.10
2008,12,16,00,58,-4.10
2008,12,16,00,59,-4.20
2008,12,16,01,00,-4.20
2008,12,16,01,01,-4.30
2008,12,16,01,02,-4.40
2008,12,16,01,03,-4.50
2008,12,16,01,04,-4.60
2008,12,16,01,05,-4.70
2008,12,16,01,06,-4.80
2008,12,16,01,07,-4.80
2008,12,16,01,08,-4.90
2008,12,16,01,09,-4.90
2008,12,16,01,10,-5.00
2008,12,16,01,11,-5.00
2008,12,16,01,12,-5.10
2008,12,16,01,13,-5.10
2008,12,16,01,14,-5.20
2008,12,16,01,15,-5.20
2008,12,16,01,16,-5.30
2008,12,16,01,17,-5.30
2008,12,16,01,18,-5.40
2008,12,16,01,19,-5.40
2008,12,16,01,20,-5.50
2008,12,16,01,21,-5.50
2008,12,16,01,22,-5.60
2008,12,16,01,23,-5.60
2008,12,16,01,24,-5.70
2008,12,16,01,25,-5.80
2008,12,16,01,26,-5.90
2008,12,16,01,27,-5.90
2008,12,16,01,28,-5.90
2008,12,16,01,29,-5.90
2008,12,16,01,30,-6.00
2008,12,16,01,31,-6.10
2008,12,16,01,32,-6.10
2008,12,16,01,33,-6.10
2008,12,16,01,34,-6.10
2008,12,16,01,35,-6.10
2008,12,16,01,36,-6.10
2008,12,16,01,37,-6.20
2008,12,16,01,38,-6.20
2008,12,16,01,39,-6.20
2008,12,16,01,40,-6.30
2008,12,16,01,41,-6.30
2008,12,16,01,42,-6.40
2008,12,16,01,43,-6.40
2008,12,16,01,44,-6.40
2008,12,16,01,45,-6.50
2008,12,16,01,46,-6.50
2008,12,16,01,47,-6.60
2008,12,16,01,48,-6.60
2008,12,16,01,49,-6.70
2008,12,16,01,50,-6.70
2008,12,16,01,51,-6.70
2008,12,16,01,52,-6.70
2008,12,16,01,53,-6.80
2008,12,16,01,54,-6.80
2008,12,16,01,55,-6.80
2008,12,16,01,56,-6.90
2008,12,16,01,57,-6.90
2008,12,16,01,58,-6.90
2008,12,16,01,59,-6.90
2008,12,16,02,00,-7.00
2008,12,16,02,01,-7.00
2008,12,16,02,02,-7.00
2008,12,16,02,03,-7.00
2008,12,16,02,04,-7.00
2008,12,16,02,05,-7.00
2008,12,16,02,06,-7.00
2008,12,16,02,07,-7.00
2008,12,16,02,08,-7.10
2008,12,16,02,09,-7.10
2008,12,16,02,10,-7.20
2008,12,16,02,11,-7.20
2008,12,16,02,12,-7.20
2008,12,16,02,13,-7.30
2008,12,16,02,14,-7.30
2008,12,16,02,15,-7.30
2008,12,16,02,16,-7.30
2008,12,16,02,17,-7.30
2008,12,16,02,18,-7.30
2008,12,16,02,19,-7.40
2008,12,16,02,20,-7.40
2008,12,16,02,21,-7.40
2008,12,16,02,22,-7.60
2008,12,16,02,23,-7.60
2008,12,16,02,24,-7.60
2008,12,16,02,25,-7.60
2008,12,16,02,26,-7.60
2008,12,16,02,27,-7.70
2008,12,16,02,28,-7.70
2008,12,16,02,29,-7.70
2008,12,16,02,30,-7.70
2008,12,16,02,31,-7.70
2008,12,16,02,32,-7.70
2008,12,16,02,33,-7.70
2008,12,16,02,34,-7.70
2008,12,16,02,35,-7.70
2008,12,16,02,36,-7.70
2008,12,16,02,37,-7.70
2008,12,16,02,38,-7.70
2008,12,16,02,39,-7.80
2008,12,16,02,40,-7.80
2008,12,16,02,41,-7.80
2008,12,16,02,42,-7.80
2008,12,16,02,43,-7.80
2008,12,16,02,44,-7.90
2008,12,16,02,45,-7.90
2008,12,16,02,46,-7.90
2008,12,16,02,47,-7.90
2008,12,16,02,48,-7.90
2008,12,16,02,49,-7.90
2008,12,16,02,50,-7.90
2008,12,16,02,51,-7.90
2008,12,16,02,52,-7.90
2008,12,16,02,53,-7.90
2008,12,16,02,54,-7.90
2008,12,16,02,55,-7.90
2008,12,16,02,56,-7.90
2008,12,16,02,57,-7.90
2008,12,16,02,58,-7.90
2008,12,16,02,59,-7.90
2008,12,16,03,00,-7.90
2008,12,16,03,01,-7.90
2008,12,16,03,02,-7.90
2008,12,16,03,03,-8.00
2008,12,16,03,04,-8.10
2008,12,16,03,05,-8.10
2008,12,16,03,06,-8.10
2008,12,16,03,07,-8.10
2008,12,16,03,08,-8.10
2008,12,16,03,09,-8.20
2008,12,16,03,10,-8.20
2008,12,16,03,11,-8.20
2008,12,16,03,12,-8.20
2008,12,16,03,13,-8.20
2008,12,16,03,14,-8.20
2008,12,16,03,15,-8.20
2008,12,16,03,16,-8.20
2008,12,16,03,17,-8.30
2008,12,16,03,18,-8.30
2008,12,16,03,19,-8.30
2008,12,16,03,20,-8.30
2008,12,16,03,21,-8.40
2008,12,16,03,22,-8.40
2008,12,16,03,23,-8.40
2008,12,16,03,24,-8.40
2008,12,16,03,25,-8.40
2008,12,16,03,26,-8.40
2008,12,16,03,27,-8.50
2008,12,16,03,28,-8.50
2008,12,16,03,29,-8.50
2008,12,16,03,30,-8.50
2008,12,16,03,31,-8.50
2008,12,16,03,32,-8.50
2008,12,16,03,33,-8.50
2008,12,16,03,34,-8.60
2008,12,16,03,35,-8.60
2008,12,16,03,36,-8.60
2008,12,16,03,37,-8.60
2008,12,16,03,38,-8.60
2008,12,16,03,39,-8.60
2008,12,16,03,40,-8.70
2008,12,16,03,41,-8.70
2008,12,16,03,42,-8.70
2008,12,16,03,43,-8.70
2008,12,16,03,44,-8.70
2008,12,16,03,45,-8.70
2008,12,16,03,46,-8.70
2008,12,16,03,47,-8.80
2008,12,16,03,48,-8.80
2008,12,16,03,49,-8.80
2008,12,16,03,50,-8.80
2008,12,16,03,51,-8.80
2008,12,16,03,52,-8.80
2008,12,16,03,53,-8.80
2008,12,16,03,54,-8.80
2008,12,16,03,55,-8.80
2008,12,16,03,56,-8.80
2008,12,16,03,57,-8.80
2008,12,16,03,58,-8.80
2008,12,16,03,59,-8.90
2008,12,16,04,00,-8.90
2008,12,16,04,01,-8.90
2008,12,16,04,02,-8.90
2008,12,16,04,03,-8.90
2008,12,16,04,04,-8.90
2008,12,16,04,05,-9.00
2008,12,16,04,06,-9.10
2008,12,16,04,07,-9.10
2008,12,16,04,08,-9.10
2008,12,16,04,09,-9.10
2008,12,16,04,10,-9.10
2008,12,16,04,11,-9.10
2008,12,16,04,12,-9.10
2008,12,16,04,13,-9.10
2008,12,16,04,14,-9.10
2008,12,16,04,15,-9.10
2008,12,16,04,16,-9.10
2008,12,16,04,17,-9.10
2008,12,16,04,18,-9.10
2008,12,16,04,19,-9.10
2008,12,16,04,20,-9.10
2008,12,16,04,21,-9.10
2008,12,16,04,22,-9.10
2008,12,16,04,23,-9.10
2008,12,16,04,24,-9.10
2008,12,16,04,25,-9.10
2008,12,16,04,26,-9.10
2008,12,16,04,27,-9.10
2008,12,16,04,28,-9.10
2008,12,16,04,29,-9.10
2008,12,16,04,30,-9.10
2008,12,16,04,31,-9.10
2008,12,16,04,32,-9.10
2008,12,16,04,33,-9.10
2008,12,16,04,34,-9.20
2008,12,16,04,35,-9.20
2008,12,16,04,36,-9.20
2008,12,16,04,37,-9.20
2008,12,16,04,38,-9.20
2008,12,16,04,39,-9.20
2008,12,16,04,40,-9.20
2008,12,16,04,41,-9.20
2008,12,16,04,42,-9.30
2008,12,16,04,43,-9.30
2008,12,16,04,44,-9.30
2008,12,16,04,45,-9.30
2008,12,16,04,46,-9.30
2008,12,16,04,47,-9.30
2008,12,16,04,48,-9.30
2008,12,16,04,49,-9.40
2008,12,16,04,50,-9.40
2008,12,16,04,51,-9.40
2008,12,16,04,52,-9.40
2008,12,16,04,53,-9.40
2008,12,16,04,54,-9.40
2008,12,16,04,55,-9.40
2008,12,16,04,56,-9.40
2008,12,16,04,57,-9.50
2008,12,16,04,58,-9.50
2008,12,16,04,59,-9.50
2008,12,16,05,00,-9.50
2008,12,16,05,01,-9.50
2008,12,16,05,02,-9.50
2008,12,16,05,03,-9.50
2008,12,16,05,04,-9.60
2008,12,16,05,05,-9.60
2008,12,16,05,06,-9.60
2008,12,16,05,07,-9.60
2008,12,16,05,08,-9.60
2008,12,16,05,09,-9.60
2008,12,16,05,10,-9.60
2008,12,16,05,11,-9.60
2008,12,16,05,12,-9.60
2008,12,16,05,13,-9.60
2008,12,16,05,14,-9.70
2008,12,16,05,15,-9.70
2008,12,16,05,16,-9.70
2008,12,16,05,17,-9.70
2008,12,16,05,18,-9.70
2008,12,16,05,19,-9.70
2008,12,16,05,20,-9.70
2008,12,16,05,21,-9.70
2008,12,16,05,22,-9.80
2008,12,16,05,23,-9.80
2008,12,16,05,24,-9.80
2008,12,16,05,25,-9.80
2008,12,16,05,26,-9.80
2008,12,16,05,27,-9.80
2008,12,16,05,28,-9.80
2008,12,16,05,29,-9.80
2008,12,16,05,30,-9.80
2008,12,16,05,31,-9.80
2008,12,16,05,32,-9.80
2008,12,16,05,33,-9.80
2008,12,16,05,34,-9.80
2008,12,16,05,35,-9.80
2008,12,16,05,36,-9.80
2008,12,16,05,37,-9.90
2008,12,16,05,38,-9.90
2008,12,16,05,39,-9.90
2008,12,16,05,40,-9.90
2008,12,16,05,41,-9.90
2008,12,16,05,42,-9.90
2008,12,16,05,43,-9.90
2008,12,16,05,44,-10.00
2008,12,16,05,45,-10.00
2008,12,16,05,46,-10.00
2008,12,16,05,47,-10.00
2008,12,16,05,48,-10.00
2008,12,16,05,49,-10.00
2008,12,16,05,50,-10.10
2008,12,16,05,51,-10.10
2008,12,16,05,52,-10.10
2008,12,16,05,53,-10.10
2008,12,16,05,54,-10.10
2008,12,16,05,55,-10.10
2008,12,16,05,56,-10.10
2008,12,16,05,57,-10.10
2008,12,16,05,58,-10.20
2008,12,16,05,59,-10.20
2008,12,16,06,00,-10.20
2008,12,16,06,01,-10.20
2008,12,16,06,02,-10.20
2008,12,16,06,03,-10.20
2008,12,16,06,04,-10.20
2008,12,16,06,05,-10.20
2008,12,16,06,06,-10.20
2008,12,16,06,07,-10.20
2008,12,16,06,08,-10.20
2008,12,16,06,09,-10.20
2008,12,16,06,10,-10.20
2008,12,16,06,11,-10.10
2008,12,16,06,12,-10.10
2008,12,16,06,13,-10.10
2008,12,16,06,14,-10.10
2008,12,16,06,15,-10.10
2008,12,16,06,16,-10.10
2008,12,16,06,17,-10.10
2008,12,16,06,18,-10.10
2008,12,16,06,19,-10.10
2008,12,16,06,20,-10.10
2008,12,16,06,21,-10.20
2008,12,16,06,22,-10.20
2008,12,16,06,23,-10.20
2008,12,16,06,24,-10.20
2008,12,16,06,25,-10.20
2008,12,16,06,26,-10.20
2008,12,16,06,27,-10.20
2008,12,16,06,28,-10.30
2008,12,16,06,29,-10.30
2008,12,16,06,30,-10.30
2008,12,16,06,31,-10.30
2008,12,16,06,32,-10.30
2008,12,16,06,33,-10.30
2008,12,16,06,34,-10.30
2008,12,16,06,35,-10.30
2008,12,16,06,36,-10.30
2008,12,16,06,37,-10.30
2008,12,16,06,38,-10.30
2008,12,16,06,39,-10.30
2008,12,16,06,40,-10.30
2008,12,16,06,41,-10.30
2008,12,16,06,42,-10.30
2008,12,16,06,43,-10.30
2008,12,16,06,44,-10.30
2008,12,16,06,45,-10.40
2008,12,16,06,46,-10.40
2008,12,16,06,47,-10.50
2008,12,16,06,48,-10.50
2008,12,16,06,49,-10.50
2008,12,16,06,50,-10.60
2008,12,16,06,51,-10.60
2008,12,16,06,52,-10.60
2008,12,16,06,53,-10.60
2008,12,16,06,54,-10.60
2008,12,16,06,55,-10.60
2008,12,16,06,56,-10.60
2008,12,16,06,57,-10.60
2008,12,16,06,58,-10.70
2008,12,16,06,59,-10.70
2008,12,16,07,00,-10.70
2008,12,16,07,01,-10.70
2008,12,16,07,02,-10.70
2008,12,16,07,03,-10.70
2008,12,16,07,04,-10.70
2008,12,16,07,05,-10.70
2008,12,16,07,06,-10.70
2008,12,16,07,07,-10.70
2008,12,16,07,08,-10.70
2008,12,16,07,09,-10.70
2008,12,16,07,10,-10.70
2008,12,16,07,11,-10.70
2008,12,16,07,12,-10.70
2008,12,16,07,13,-10.70
2008,12,16,07,14,-10.70
2008,12,16,07,15,-10.70
2008,12,16,07,16,-10.60
2008,12,16,07,17,-10.60
2008,12,16,07,18,-10.60
2008,12,16,07,19,-10.60
2008,12,16,07,20,-10.60
2008,12,16,07,21,-10.60
2008,12,16,07,22,-10.60
2008,12,16,07,23,-10.60
2008,12,16,07,24,-10.60
2008,12,16,07,25,-10.60
2008,12,16,07,26,-10.60
2008,12,16,07,27,-10.60
2008,12,16,07,28,-10.60
2008,12,16,07,29,-10.60
2008,12,16,07,30,-10.60
2008,12,16,07,31,-10.60
2008,12,16,07,32,-10.60
2008,12,16,07,33,-10.60
2008,12,16,07,34,-10.60
2008,12,16,07,35,-10.60
2008,12,16,07,36,-10.60
2008,12,16,07,37,-10.60
2008,12,16,07,38,-10.60
2008,12,16,07,39,-10.60
2008,12,16,07,40,-10.60
2008,12,16,07,41,-10.60
2008,12,16,07,42,-10.60
2008,12,16,07,43,-10.60
2008,12,16,07,44,-10.60
2008,12,16,07,45,-10.60
2008,12,16,07,46,-10.60
2008,12,16,07,47,-10.60
2008,12,16,07,48,-10.70
2008,12,16,07,49,-10.70
2008,12,16,07,50,-10.70
2008,12,16,07,51,-10.70
2008,12,16,07,52,-10.70
2008,12,16,07,53,-10.70
2008,12,16,07,54,-10.70
2008,12,16,07,55,-10.70
2008,12,16,07,56,-10.70
2008,12,16,07,57,-10.70
2008,12,16,07,58,-10.70
2008,12,16,07,59,-10.80
2008,12,16,08,00,-10.80
2008,12,16,08,01,-10.80
2008,12,16,08,02,-10.80
2008,12,16,08,03,-10.80
2008,12,16,08,04,-10.80
2008,12,16,08,05,-10.80
2008,12,16,08,06,-10.80
2008,12,16,08,07,-10.80
2008,12,16,08,08,-10.80
2008,12,16,08,09,-10.80
2008,12,16,08,10,-10.70
2008,12,16,08,11,-10.70
2008,12,16,08,12,-10.70
2008,12,16,08,13,-10.70
2008,12,16,08,14,-10.70
2008,12,16,08,15,-10.70
2008,12,16,08,16,-10.70
2008,12,16,08,17,-10.70
2008,12,16,08,18,-10.70
2008,12,16,08,19,-10.70
2008,12,16,08,20,-10.70
2008,12,16,08,21,-10.70
2008,12,16,08,22,-10.70
2008,12,16,08,23,-10.60
2008,12,16,08,24,-10.60
2008,12,16,08,25,-10.60
2008,12,16,08,26,-10.60
2008,12,16,08,27,-10.60
2008,12,16,08,28,-10.60
2008,12,16,08,29,-10.60
2008,12,16,08,30,-10.60
2008,12,16,08,31,-10.60
2008,12,16,08,32,-10.60
2008,12,16,08,33,-10.50
2008,12,16,08,34,-10.50
2008,12,16,08,35,-10.50
2008,12,16,08,36,-10.50
2008,12,16,08,37,-10.50
2008,12,16,08,38,-10.50
2008,12,16,08,39,-10.40
2008,12,16,08,40,-10.40
2008,12,16,08,41,-10.40
2008,12,16,08,42,-10.40
2008,12,16,08,43,-10.30
2008,12,16,08,44,-10.30
2008,12,16,08,45,-10.20
2008,12,16,08,46,-10.20
2008,12,16,08,47,-10.20
2008,12,16,08,48,-10.10
2008,12,16,08,49,-10.10
2008,12,16,08,50,-10.10
2008,12,16,08,51,-10.00
2008,12,16,08,52,-10.00
2008,12,16,08,53,-10.00
2008,12,16,08,54,-9.90
2008,12,16,08,55,-9.90
2008,12,16,08,56,-9.90
2008,12,16,08,57,-9.90
2008,12,16,08,58,-9.80
2008,12,16,08,59,-9.80
2008,12,16,09,00,-9.80
2008,12,16,09,01,-9.80
2008,12,16,09,02,-9.70
2008,12,16,09,03,-9.60
2008,12,16,09,04,-9.50
2008,12,16,09,05,-9.40
2008,12,16,09,06,-9.40
2008,12,16,09,07,-9.30
2008,12,16,09,08,-9.20
2008,12,16,09,09,-9.10
2008,12,16,09,10,-8.90
2008,12,16,09,11,-8.80
2008,12,16,09,12,-8.70
2008,12,16,09,13,-8.60
2008,12,16,09,14,-8.40
2008,12,16,09,15,-8.30
2008,12,16,09,16,-8.10
2008,12,16,09,17,-7.90
2008,12,16,09,18,-7.70
2008,12,16,09,19,-7.60
2008,12,16,09,20,-7.50
2008,12,16,09,21,-7.30
2008,12,16,09,22,-7.30
2008,12,16,09,23,-7.20
2008,12,16,09,24,-7.10
2008,12,16,09,25,-6.90
2008,12,16,09,26,-6.80
2008,12,16,09,27,-6.60
2008,12,16,09,28,-6.50
2008,12,16,09,29,-6.40
2008,12,16,09,30,-6.30
2008,12,16,09,31,-6.10
2008,12,16,09,32,-6.10
2008,12,16,09,33,-6.00
2008,12,16,09,34,-5.90
2008,12,16,09,35,-5.90
2008,12,16,09,36,-5.90
2008,12,16,09,37,-5.80
2008,12,16,09,38,-5.70
2008,12,16,09,39,-5.70
2008,12,16,09,40,-5.70
2008,12,16,09,41,-5.60
2008,12,16,09,42,-5.60
2008,12,16,09,43,-5.60
2008,12,16,09,44,-5.50
2008,12,16,09,45,-5.50
2008,12,16,09,46,-5.40
2008,12,16,09,47,-5.30
2008,12,16,09,48,-5.30
2008,12,16,09,49,-5.30
2008,12,16,09,50,-5.20
2008,12,16,09,51,-5.20
2008,12,16,09,52,-5.10
2008,12,16,09,53,-5.10
2008,12,16,09,54,-5.00
2008,12,16,09,55,-4.90
2008,12,16,09,56,-4.80
2008,12,16,09,57,-4.70
2008,12,16,09,58,-4.70
2008,12,16,09,59,-4.70
2008,12,16,10,00,-4.70
2008,12,16,10,01,-4.70
2008,12,16,10,02,-4.70
2008,12,16,10,03,-4.60
2008,12,16,10,04,-4.50
2008,12,16,10,05,-4.40
2008,12,16,10,06,-4.30
2008,12,16,10,07,-4.20
2008,12,16,10,08,-4.20
2008,12,16,10,09,-4.10
2008,12,16,10,10,-4.00
2008,12,16,10,11,-4.00
2008,12,16,10,12,-4.00
2008,12,16,10,13,-4.00
2008,12,16,10,14,-3.90
2008,12,16,10,15,-3.90
2008,12,16,10,16,-3.80
2008,12,16,10,17,-3.70
2008,12,16,10,18,-3.70
2008,12,16,10,19,-3.70
2008,12,16,10,20,-3.60
2008,12,16,10,21,-3.60
2008,12,16,10,22,-3.50
2008,12,16,10,23,-3.50
2008,12,16,10,24,-3.40
2008,12,16,10,25,-3.40
2008,12,16,10,26,-3.30
2008,12,16,10,27,-3.30
2008,12,16,10,28,-3.20
2008,12,16,10,29,-3.10
2008,12,16,10,30,-3.00
2008,12,16,10,31,-2.80
2008,12,16,10,32,-2.80
2008,12,16,10,33,-2.70
2008,12,16,10,34,-2.60
2008,12,16,10,35,-2.60
2008,12,16,10,36,-2.60
2008,12,16,10,37,-2.50
2008,12,16,10,38,-2.50
2008,12,16,10,39,-2.40
2008,12,16,10,40,-2.30
2008,12,16,10,41,-2.30
2008,12,16,10,42,-2.30
2008,12,16,10,43,-2.20
2008,12,16,10,44,-2.10
2008,12,16,10,45,-2.10
2008,12,16,10,46,-2.00
2008,12,16,10,47,-2.00
2008,12,16,10,48,-1.90
2008,12,16,10,49,-1.80
2008,12,16,10,50,-1.70
2008,12,16,10,51,-1.50
2008,12,16,10,52,-1.50
2008,12,16,10,53,-1.40
2008,12,16,10,54,-1.30
2008,12,16,10,55,-1.30
2008,12,16,10,56,-1.20
2008,12,16,10,57,-1.20
2008,12,16,10,58,-1.20
2008,12,16,10,59,-1.20
2008,12,16,11,00,-1.10
2008,12,16,11,01,-1.00
2008,12,16,11,02,-0.90
2008,12,16,11,03,-0.80
2008,12,16,11,04,-0.70
2008,12,16,11,05,-0.70
2008,12,16,11,06,-0.60
2008,12,16,11,07,-0.50
2008,12,16,11,08,-0.40
2008,12,16,11,09,-0.40
2008,12,16,11,10,-0.30
2008,12,16,11,11,-0.20
2008,12,16,11,12,-0.20
2008,12,16,11,13,-0.10
2008,12,16,11,14,-0.10
2008,12,16,11,15,0.00
2008,12,16,11,16,0.10
2008,12,16,11,17,0.20
2008,12,16,11,18,0.30
2008,12,16,11,19,0.40
2008,12,16,11,20,0.40
2008,12,16,11,21,0.50
2008,12,16,11,22,0.50
2008,12,16,11,23,0.40
2008,12,16,11,24,0.50
2008,12,16,11,25,0.50
2008,12,16,11,26,0.50
2008,12,16,11,27,0.50
2008,12,16,11,28,0.60
2008,12,16,11,29,0.60
2008,12,16,11,30,0.60
2008,12,16,11,31,0.70
2008,12,16,11,32,0.70
2008,12,16,11,33,0.80
2008,12,16,11,34,0.80
2008,12,16,11,35,1.00
2008,12,16,11,36,1.10
2008,12,16,11,37,1.30
2008,12,16,11,38,1.40
2008,12,16,11,39,1.60
2008,12,16,11,40,1.60
2008,12,16,11,41,1.60
2008,12,16,11,42,1.60
2008,12,16,11,43,1.60
2008,12,16,11,44,1.50
2008,12,16,11,45,1.30
2008,12,16,11,46,1.10
2008,12,16,11,47,0.90
2008,12,16,11,48,0.80
2008,12,16,11,49,0.80
2008,12,16,11,50,0.80
2008,12,16,11,51,0.80
2008,12,16,11,52,0.80
2008,12,16,11,53,0.70
2008,12,16,11,54,0.80
2008,12,16,11,55,0.70
2008,12,16,11,56,0.80
2008,12,16,11,57,0.80
2008,12,16,11,58,0.80
2008,12,16,11,59,0.80
2008,12,16,12,00,0.80
2008,12,16,12,01,0.80
2008,12,16,12,02,0.90
2008,12,16,12,03,1.00
2008,12,16,12,04,1.00
2008,12,16,12,05,1.10
2008,12,16,12,06,1.10
2008,12,16,12,07,1.10
2008,12,16,12,08,1.10
2008,12,16,12,09,1.10
2008,12,16,12,10,1.20
2008,12,16,12,11,1.20
2008,12,16,12,12,1.20
2008,12,16,12,13,1.10
2008,12,16,12,14,1.10
2008,12,16,12,15,1.10
2008,12,16,12,16,1.10
2008,12,16,12,17,1.00
2008,12,16,12,18,1.00
2008,12,16,12,19,1.00
2008,12,16,12,20,1.00
2008,12,16,12,21,1.00
2008,12,16,12,22,1.10
2008,12,16,12,23,1.10
2008,12,16,12,24,1.10
2008,12,16,12,25,1.10
2008,12,16,12,26,1.10
2008,12,16,12,27,1.10
2008,12,16,12,28,1.10
2008,12,16,12,29,1.20
2008,12,16,12,30,1.20
2008,12,16,12,31,1.30
2008,12,16,12,32,1.30
2008,12,16,12,33,1.30
2008,12,16,12,34,1.30
2008,12,16,12,35,1.30
2008,12,16,12,36,1.30
2008,12,16,12,37,1.40
2008,12,16,12,38,1.50
2008,12,16,12,39,1.60
2008,12,16,12,40,1.60
2008,12,16,12,41,1.70
2008,12,16,12,42,1.80
2008,12,16,12,43,1.80
2008,12,16,12,44,1.80
2008,12,16,12,45,1.80
2008,12,16,12,46,1.80
2008,12,16,12,47,1.80
2008,12,16,12,48,1.80
2008,12,16,12,49,1.80
2008,12,16,12,50,1.70
2008,12,16,12,51,1.70
2008,12,16,12,52,1.70
2008,12,16,12,53,1.60
2008,12,16,12,54,1.60
2008,12,16,12,55,1.60
2008,12,16,12,56,1.60
2008,12,16,12,57,1.70
2008,12,16,12,58,1.70
2008,12,16,12,59,1.70
2008,12,16,13,00,1.70
2008,12,16,13,01,1.70
2008,12,16,13,02,1.70
2008,12,16,13,03,1.70
2008,12,16,13,04,1.70
2008,12,16,13,05,1.70
2008,12,16,13,06,1.80
2008,12,16,13,07,1.80
2008,12,16,13,08,1.80
2008,12,16,13,09,1.80
2008,12,16,13,10,1.80
2008,12,16,13,11,1.80
2008,12,16,13,12,1.60
2008,12,16,13,13,1.60
2008,12,16,13,14,1.60
2008,12,16,13,15,1.60
2008,12,16,13,16,1.60
2008,12,16,13,17,1.60
2008,12,16,13,18,1.60
2008,12,16,13,19,1.60
2008,12,16,13,20,1.50
2008,12,16,13,21,1.50
2008,12,16,13,22,1.50
2008,12,16,13,23,1.50
2008,12,16,13,24,1.60
2008,12,16,13,25,1.60
2008,12,16,13,26,1.70
2008,12,16,13,27,1.70
2008,12,16,13,28,1.80
2008,12,16,13,29,1.80
2008,12,16,13,30,1.70
2008,12,16,13,31,1.60
2008,12,16,13,32,1.60
2008,12,16,13,33,1.60
2008,12,16,13,34,1.60
2008,12,16,13,35,1.60
2008,12,16,13,36,1.70
2008,12,16,13,37,1.70
2008,12,16,13,38,1.70
2008,12,16,13,39,1.70
2008,12,16,13,40,1.60
2008,12,16,13,41,1.60
2008,12,16,13,42,1.50
2008,12,16,13,43,1.60
2008,12,16,13,44,1.50
2008,12,16,13,45,1.50
2008,12,16,13,46,1.50
2008,12,16,13,47,1.50
2008,12,16,13,48,1.50
2008,12,16,13,49,1.40
2008,12,16,13,50,1.40
2008,12,16,13,51,1.40
2008,12,16,13,52,1.40
2008,12,16,13,53,1.40
2008,12,16,13,54,1.30
2008,12,16,13,55,1.30
2008,12,16,13,56,1.30
2008,12,16,13,57,1.30
2008,12,16,13,58,1.30
2008,12,16,13,59,1.30
2008,12,16,14,00,1.30
2008,12,16,14,01,1.30
2008,12,16,14,02,1.30
2008,12,16,14,03,1.20
2008,12,16,14,04,1.10
2008,12,16,14,05,1.10
2008,12,16,14,06,1.10
2008,12,16,14,07,1.10
2008,12,16,14,08,1.10
2008,12,16,14,09,1.10
2008,12,16,14,10,1.00
2008,12,16,14,11,1.00
2008,12,16,14,12,1.00
2008,12,16,14,13,1.00
2008,12,16,14,14,1.00
2008,12,16,14,15,1.00
2008,12,16,14,16,1.00
2008,12,16,14,17,1.00
2008,12,16,14,18,1.00
2008,12,16,14,19,1.00
2008,12,16,14,20,1.00
2008,12,16,14,21,0.90
2008,12,16,14,22,0.90
2008,12,16,14,23,0.90
2008,12,16,14,24,0.90
2008,12,16,14,25,0.90
2008,12,16,14,26,0.90
2008,12,16,14,27,0.90
2008,12,16,14,28,0.90
2008,12,16,14,29,0.80
2008,12,16,14,30,0.80
2008,12,16,14,31,0.80
2008,12,16,14,32,0.80
2008,12,16,14,33,0.80
2008,12,16,14,34,0.80
2008,12,16,14,35,0.80
2008,12,16,14,36,0.80
2008,12,16,14,37,0.80
2008,12,16,14,38,0.80
2008,12,16,14,39,0.80
2008,12,16,14,40,0.80
2008,12,16,14,41,0.80
2008,12,16,14,42,0.80
2008,12,16,14,43,0.80
2008,12,16,14,44,0.80
2008,12,16,14,45,0.90
2008,12,16,14,46,0.90
2008,12,16,14,47,0.90
2008,12,16,14,48,0.90
2008,12,16,14,49,0.90
2008,12,16,14,50,0.90
2008,12,16,14,51,0.90
2008,12,16,14,52,0.90
2008,12,16,14,53,0.90
2008,12,16,14,54,0.90
2008,12,16,14,55,0.90
2008,12,16,14,56,1.00
2008,12,16,14,57,1.00
2008,12,16,14,58,1.00
2008,12,16,14,59,1.00
2008,12,16,15,00,1.00
2008,12,16,15,01,1.00
2008,12,16,15,02,1.00
2008,12,16,15,03,1.00
2008,12,16,15,04,1.00
2008,12,16,15,05,1.00
2008,12,16,15,06,1.00
2008,12,16,15,07,1.00
2008,12,16,15,08,1.10
2008,12,16,15,09,1.00
2008,12,16,15,10,1.00
2008,12,16,15,11,1.00
2008,12,16,15,12,1.00
2008,12,16,15,13,1.00
2008,12,16,15,14,1.00
2008,12,16,15,15,1.00
2008,12,16,15,16,1.00
2008,12,16,15,17,1.00
2008,12,16,15,18,1.00
2008,12,16,15,19,1.00
2008,12,16,15,20,0.90
2008,12,16,15,21,0.90
2008,12,16,15,22,0.90
2008,12,16,15,23,0.80
2008,12,16,15,24,0.80
2008,12,16,15,25,0.80
2008,12,16,15,26,0.80
2008,12,16,15,27,0.80
2008,12,16,15,28,0.80
2008,12,16,15,29,0.80
2008,12,16,15,30,0.80
2008,12,16,15,31,0.70
2008,12,16,15,32,0.70
2008,12,16,15,33,0.70
2008,12,16,15,34,0.70
2008,12,16,15,35,0.70
2008,12,16,15,36,0.70
2008,12,16,15,37,0.70
2008,12,16,15,38,0.70
2008,12,16,15,39,0.70
2008,12,16,15,40,0.60
2008,12,16,15,41,0.60
2008,12,16,15,42,0.60
2008,12,16,15,43,0.60
2008,12,16,15,44,0.60
2008,12,16,15,45,0.50
2008,12,16,15,46,0.50
2008,12,16,15,47,0.50
2008,12,16,15,48,0.50
2008,12,16,15,49,0.40
2008,12,16,15,50,0.40
2008,12,16,15,51,0.40
2008,12,16,15,52,0.40
2008,12,16,15,53,0.30
2008,12,16,15,54,0.30
2008,12,16,15,55,0.30
2008,12,16,15,56,0.20
2008,12,16,15,57,0.20
2008,12,16,15,58,0.20
2008,12,16,15,59,0.10
2008,12,16,16,00,0.10
2008,12,16,16,01,0.10
2008,12,16,16,02,0.10
2008,12,16,16,03,0.10
2008,12,16,16,04,0.10
2008,12,16,16,05,0.00
2008,12,16,16,06,-0.10
2008,12,16,16,07,-0.10
2008,12,16,16,08,-0.10
2008,12,16,16,09,-0.10
2008,12,16,16,10,-0.10
2008,12,16,16,11,-0.10
2008,12,16,16,12,-0.20
2008,12,16,16,13,-0.20
2008,12,16,16,14,-0.20
2008,12,16,16,15,-0.30
2008,12,16,16,16,-0.30
2008,12,16,16,17,-0.40
2008,12,16,16,18,-0.40
2008,12,16,16,19,-0.40
2008,12,16,16,20,-0.40
2008,12,16,16,21,-0.50
2008,12,16,16,22,-0.60
2008,12,16,16,23,-0.60
2008,12,16,16,24,-0.70
2008,12,16,16,25,-0.80
2008,12,16,16,26,-0.80
2008,12,16,16,27,-0.80
2008,12,16,16,28,-0.90
2008,12,16,16,29,-0.90
2008,12,16,16,30,-0.90
2008,12,16,16,31,-0.90
2008,12,16,16,32,-1.00
2008,12,16,16,33,-1.10
2008,12,16,16,34,-1.10
2008,12,16,16,35,-1.10
2008,12,16,16,36,-1.10
2008,12,16,16,37,-1.20
2008,12,16,16,38,-1.20
2008,12,16,16,39,-1.20
2008,12,16,16,40,-1.20
2008,12,16,16,41,-1.20
2008,12,16,16,42,-1.30
2008,12,16,16,43,-1.30
2008,12,16,16,44,-1.30
2008,12,16,16,45,-1.30
2008,12,16,16,46,-1.40
2008,12,16,16,47,-1.40
2008,12,16,16,48,-1.40
2008,12,16,16,49,-1.40
2008,12,16,16,50,-1.40
2008,12,16,16,51,-1.40
2008,12,16,16,52,-1.30
2008,12,16,16,53,-1.20
2008,12,16,16,54,-1.20
2008,12,16,16,55,-1.20
2008,12,16,16,56,-1.10
2008,12,16,16,57,-1.10
2008,12,16,16,58,-1.10
2008,12,16,16,59,-1.10
2008,12,16,17,00,-0.90
2008,12,16,17,01,-0.90
2008,12,16,17,02,-0.90
2008,12,16,17,03,-0.90
2008,12,16,17,04,-0.80
2008,12,16,17,05,-0.80
2008,12,16,17,06,-0.70
2008,12,16,17,07,-0.70
2008,12,16,17,08,-0.70
2008,12,16,17,09,-0.70
2008,12,16,17,10,-0.60
2008,12,16,17,11,-0.60
2008,12,16,17,12,-0.60
2008,12,16,17,13,-0.60
2008,12,16,17,14,-0.60
2008,12,16,17,15,-0.50
2008,12,16,17,16,-0.40
2008,12,16,17,17,-0.40
2008,12,16,17,18,-0.40
2008,12,16,17,19,-0.40
2008,12,16,17,20,-0.40
2008,12,16,17,21,-0.30
2008,12,16,17,22,-0.30
2008,12,16,17,23,-0.30